Ellensburg, WA
on Saturday, November 24, 2012

Saturday
Previous Day Next Day
Daily Summary
 ActualAverage (KYKM)Record (KYKM)
Temperature
Mean Temperature °F 34°F  
Max Temperature 48°F 43°F 67°F (1990)
Min Temperature 32°F 25°F -11°F (1985)
Degree Days
Heating Degree Days 25 31  
Month to date heating degree days 637  
Since 1 July heating degree days 1341  
Cooling Degree Days 0 0  
Month to date cooling degree days 0  
Year to date cooling degree days 472  
Moisture
Dew Point 32°F   
Average Humidity 73    
Maximum Humidity 87    
Minimum Humidity 52    
Precipitation
Precipitation 0.00 in 0.04 in 0.83 in (1960)
Month to date precipitation 0.80  
Year to date precipitation 6.47  
Snow
Snow 0.00 in 0.20 in 5.70 in (1979)
Month to date snowfall 2.2  
Year to date snowfall 10.9  
Since 1 July snowfall 2.3  
Snow Depth in   
Wind
Wind Speed 6 mph   
Max Wind Speed 18 mph   
Max Gust Speed 20 mph   
Visibility 8 miles   
Events     

Key: T is trace of precipitation, MM is missing value
Source: NWS Daily Summary
Time(PST)TemperatureDew PointHumidity Pressure Visibility Wind DirectionWind SpeedGust SpeedPrecipitationEvents Conditions
12:06 AM 37.4°F 33.8°F 87% 30.05 in 1.8 miles Calm Calm - N/A   Mostly Cloudy
12:12 AM 37.4°F 33.8°F 87% 30.05 in 2.0 miles East 3.5 mph - N/A   Scattered Clouds
12:29 AM 37.4°F 33.8°F 87% 30.05 in 3.0 miles Calm Calm - N/A   Clear
12:44 AM 37.4°F 33.8°F 87% 30.05 in 4.0 miles ENE 3.5 mph - N/A   Partly Cloudy
12:53 AM 37.9°F 34.0°F 86% 30.09 in 4.0 miles Calm Calm - N/A   Scattered Clouds
1:01 AM 37.4°F 33.8°F 87% 30.05 in 4.0 miles ENE 3.5 mph - N/A   Mostly Cloudy
1:53 AM 37.9°F 34.0°F 86% 30.09 in 5.0 miles Calm Calm - N/A   Overcast
2:53 AM 42.1°F 36.0°F 79% 30.10 in 10.0 miles NW 9.2 mph - N/A   Clear
4:53 AM 42.1°F 33.1°F 70% 30.12 in 10.0 miles NW 15.0 mph - N/A   Clear
5:53 AM 41.0°F 34.0°F 76% 30.15 in 10.0 miles NW 17.3 mph - N/A   Mostly Cloudy
6:53 AM 39.0°F 32.0°F 76% 30.16 in 10.0 miles North 10.4 mph - N/A   Clear
7:53 AM 39.0°F 32.0°F 76% 30.17 in 10.0 miles NNW 12.7 mph - N/A   Clear
8:53 AM 43.0°F 33.1°F 68% 30.19 in 10.0 miles NW 10.4 mph 19.6 mph N/A   Clear
9:53 AM 45.0°F 34.0°F 65% 30.21 in 10.0 miles NNW 10.4 mph - N/A   Clear
10:53 AM 46.9°F 34.0°F 61% 30.20 in 10.0 miles NNW 15.0 mph - N/A   Clear
11:53 AM 48.9°F 33.1°F 54% 30.19 in 10.0 miles NW 18.4 mph - N/A   Clear
12:53 PM 48.9°F 32.0°F 52% 30.17 in 10.0 miles NW 15.0 mph 19.6 mph N/A   Clear
1:53 PM 48.0°F 30.9°F 52% 30.17 in 10.0 miles NW 15.0 mph - N/A   Clear
2:53 PM 46.0°F 30.9°F 56% 30.17 in 10.0 miles NW 10.4 mph - N/A   Clear
3:53 PM 44.1°F 30.9°F 60% 30.17 in 10.0 miles NW 10.4 mph - N/A   Clear
4:53 PM 37.9°F 30.0°F 73% 30.17 in 10.0 miles NNW 5.8 mph - N/A   Clear
5:53 PM 35.1°F 28.0°F 76% 30.18 in 10.0 miles North 8.1 mph - N/A   Clear
6:53 PM 34.0°F 27.0°F 75% 30.18 in 10.0 miles NNW 8.1 mph - N/A   Clear
7:53 PM 34.0°F 27.0°F 75% 30.18 in 10.0 miles WNW 6.9 mph - N/A   Clear
8:53 PM 33.1°F 27.0°F 78% 30.18 in 10.0 miles NNE 5.8 mph - N/A   Clear
9:53 PM 32.0°F 26.1°F 79% 30.17 in 10.0 miles WNW 5.8 mph - N/A   Clear
10:53 PM 34.0°F 27.0°F 75% 30.18 in 10.0 miles Calm Calm - N/A   Clear
11:53 PM 37.0°F 28.0°F 70% 30.17 in 10.0 miles NW 12.7 mph - N/A   Clear
Moon Phase
Nov. 24 Nov. 28 Dec. 06 Dec. 13 Dec. 20
Sunrise:07:19 AM (PST) Moon Rise:02:15 PM (PST)11/24
Sunset:04:18 PM (PST) Moon Set:03:29 AM (PST)11/24

Copyright © 2014 The Weather Underground, Inc.